Regional Weather Roundup
Issued by NWS Green Bay, WI

Home | Current Version | Previous Version | Graphics & Text | Print | Product List | Glossary Off
Versions: 1 2 3 4 5 6 7 8 9 10 11 12 13 14 15 16 17 18 19 20 21 22 23 24 25 26 27 28 29 30 31 32 33 34 35 36 37 38 39 40 41 42 43 44 45 46 47 48 49 50

000
ASUS43 KGRB 301959
RWRGRB

NORTH-CENTRAL AND NORTHEAST WISCONSIN REGIONAL WEATHER ROUNDUP
NATIONAL WEATHER SERVICE GREEN BAY WI
300 PM CDT TUE SEP 30 2014

WIZ005-009-010>012-018-019-302100-
NORTH CENTRAL WISCONSIN

CITY           SKY/WX    TMP DP  RH WIND       PRES   REMARKS
IRONWOOD       NOT AVBL
MANITOWISH WTR NOT AVBL
ARBOR VITAE    NOT AVBL
EAGLE RIVER    NOT AVBL
LAND O LAKES   NOT AVBL
RHINELANDER    SUNNY     54  42  64 VRB5      30.05F
PHILLIPS       MOSUNNY   58  42  56 CALM      30.02F
ANTIGO         NOT AVBL
TOMAHAWK       NOT AVBL
MERRILL        NOT AVBL
$$

WIZ013-073-302100-
NORTHEAST WISCONSIN

CITY           SKY/WX    TMP DP  RH WIND       PRES   REMARKS
IRON MOUNTAIN  SUNNY     57  42  57 VRB5      30.05S
MARINETTE      NOT AVBL
$$

WIZ017-030-035>037-045-302100-
CENTRAL WISCONSIN

CITY           SKY/WX    TMP DP  RH WIND       PRES   REMARKS
MEDFORD        NOT AVBL
WAUSAU         SUNNY     53  41  63 SW6       30.04F
MOSINEE        SUNNY     52  43  71 SE7       30.06F
MARSHFIELD     SUNNY     55  43  63 SE9       30.02F
WISC RAPIDS    SUNNY     53  41  63 NE8       30.05F
STEVENS POINT  NOT AVBL
WAUPACA        NOT AVBL
SHAWANO        CLOUDY    50  42  73 N3        30.08F
CLINTONVILLE   NOT AVBL
$$

WIZ038-039-048-051-302100-
FOX VALLEY

CITY           SKY/WX    TMP DP  RH WIND       PRES   REMARKS
NWS GREEN BAY  CLOUDY    49  43  80 NE6       30.08F
APPLETON       CLOUDY    46  39  76 CALM      30.08F
OSHKOSH        CLOUDY    49  43  80 NE9       30.07S
FOND DU LAC    CLOUDY    50  43  77 NE9       30.07S
$$

WIZ022-050-052-302100-
EAST CENTRAL WISCONSIN

CITY           SKY/WX    TMP DP  RH WIND       PRES   REMARKS
STURGEON BAY   NOT AVBL
MANITOWOC      NOT AVBL
SHEBOYGAN      CLOUDY    50  42  74 N7        30.07F
$$

LMZ563-521-522-541>543-302100-
LAKESHORE

STATION/POSITION TIME  TEMP    WIND        PRES    VSBY  WAVE
                       AIR SEA DIR/SP/G                  HT/PER
                 (UTC) (F)     (DEG/KT/KT) (MB)    (MI)  (FT/S)
SHEBOYGAN LKSHOR 1900   48 54  360/ 11/ 13 1019.1F
KEWAUNEE LKSHORE 1900   49      30/  6/  9 1017.6S
TWO RIVERS CG    1900   50                 1018.5   3 1/2  1
NORTHPORT PIER   1900   49     350/  7/ 13 1018.3F
N MID LAKE BUOY  1900   50 58  360/  8/ 10 1018.2F         2/ 4
S GREEN BAY BUOY 1900   48     VRB  4/  6  1019.7S
CHAMBERS ISLAND  1900   50     350/ 10/ 11 1018.3F
MENOMINEE LKSHOR 1900   49      30/  5/  7 1019.1F
$$


USA.gov is the U.S. government's official web portal to all federal, state and local government web resources and services.